DMSP 5D-2 F13 DEB

Satellite information

Favourite Embed

Satellite Type and Status

DEBRISIN ORBIT

Key statistics

Satellite DMSP 5D-2 F13 DEB at a glance.

Uptime

11062

Days in orbit

Revolutions

≈ 14.2

Per day

Orbit

SSO

Sun Synchronous Orbit

Inclination

99.0

Latest

Satellite identification and parameters

Extended collection of information and parameters for DMSP 5D-2 F13 DEB.

Object identification

Identified? True

Debris? True

Object name: DMSP 5D-2 F13 DEB

International designator: 1995-015CU

Object number (NORAD): 40508

Object ID (CCSDS): 40508

Country: UNITED STATES OF AMERICA (US)

Current information (Y/N): Y

RCS size: SMALL

Orbital parameters

Period: 101.454 minutes

Inclination: 99.0349 deg

SMA: 7205.652 km

Apoapsis: 862.998 km

Periapsis: 792.036 km

RAAN: 194.8827 deg

Eccentricy: 0.0049241

Argument of periapsis: 30.607 deg

Mean anomaly: 329.7962 deg

Mean motion: 14.19360865 rev/day

Mean motion (dot): 0.00002993 rev/day2

B* drag term: 0.0014284 1/REarth

Two-line elements (TLE)

Creation date: July 5, 2025, 5:45 p.m.

Reference frame: TEME

Reference center: EARTH

Epoch: July 5, 2025, 11:08 a.m. UTC

TLE line 0: 0 DMSP 5D-2 F13 DEB

TLE line 1: 1 40508U 95015CU 25186.46401394 .00002993 00000-0 14284-2 0 9994

TLE line 2: 2 40508 99.0349 194.8827 0049241 30.6070 329.7962 14.19360865528633

Live tracking on map

Real-time ground track for satellite DMSP 5D-2 F13 DEB.

In-orbit conjunctions

A list of the most updated potential collisions computed for object DMSP 5D-2 F13 DEB.

Target Orbit TCA Probability of collision Miss distance Type
SL-16 DEB LEO 2025-03-13 06:21:24 0.000635161 39.0 (m) DEBRIS
IRS 1C SSO 2024-12-25 01:52:31 0.0001499838 539.0 (m) PAYLOAD
DMSP 5D-2 F9 DEB SSO 2024-09-15 14:44:41 0.0003966694 61.0 (m) DEBRIS

Associated space launch

Military meteorological satellite

DMSP 5D-2 F13 DEB was lifted into orbit during the mission ‘Atlas E | DMSP-5D2 F13’, on board a Atlas E space rocket.

The launch took place on March 24, 1995, 2:05 p.m. from Space Launch Complex 3W.

For more information about the launch, click the button.

Launch to space Atlas E | DMSP-5D2 F13
Atlas E | DMSP-5D2 F13

Agency: N/A

Status: Launch Successful

Launch date: March 24, 1995, 2:05 p.m. UTC

Rocket: Atlas E

Launch pad: Space Launch Complex 3W

Location: Vandenberg SFB, CA, USA

...

Latest news about this satellite

There are no fresh news available about this satellite. Check back as we update our databases every day.


Newsletter sign-up

Weekly statistics, charts and insights to help you stay on top of the space industry.